CZ-6A DEB

基本信息
目录编号:
61462
目录名称:
CZ-6A DEB
国际标识:
2024-140ZU
轨道中心:
EARTH
物体状态:
在轨
发射日期:
2024-08-06 UTC
轨道信息
数据来源: 国际轨道数据
星历时间: 2026-09-10T21:04:23+0800
半长轴: 7170.594km
偏心率: 0.0074172
轨道倾角: 89.113°
近地点辐角: 306.503°
升交点赤经: 274.592°
平近点角: 52.935°
近地点: 739.271km
远地点: 845.643km
周期: 100.715分钟
每日圈数: 14.29783
详细信息
发射场:
TSC
轨道高度:
LEO
数据来源:
AOE Integration Group
参考系:
TEME
时间系统:
UTC
历元类型:
SGP4
2D轨道图
3D轨道图
轨道高度分析图
轨道倾角分析图
轨道综合分析图
查看轨道综合分析图